Location: Fazenda Monte Alegre
(4.8500°S, 38.0333°W)
Time: 17:30:54
(UTC+00:00)

FengYun 1-2 T - Pass Details

Date: 24 September 2020
Orbit: 847 x 881 km, 98.7° (Epoch: 24 October)

Event Time Altitude Azimuth Distance (km) Brightness Sun altitude
Rises 20:36:06 0° 160° (SSE) 3,421 7.2 -3.0°
Reaches altitude 10° 20:38:31 10° 155° (SSE) 2,486 6.4 -3.6°
Maximum altitude 20:43:55 56° 78° (ENE) 1,013 4.3 -4.9°
Drops below altitude 10° 20:49:20 10° 0° (N) 2,494 6.7 -6.3°
Sets 20:51:45 0° 356° (N) 3,432 7.4 -6.9°
